[[{"header":{"parameterUnit":"m.s-1","parameterCategory":1,"la1":30.2991,"la2":30.254,"lo1":-89.0895,"lo2":-89.0444,"dy":0.0017,"dx":0.0017,"nx":28,"ny":28,"refTime":"2025-04-10T09:00:00:Z","depth":0,"parameterNumber":2,"parameterNumberName":"U-component_of_WINDS"},"data":[0,0,0,0,0,0,0,0,0,0,0,0,0,0,0,0,0,0,0,0,0,0,0,0,0,0,0,0,0,0,0,0,0,0,0,0,0,0,0,0,0,0,0,0,0,0,0,0,0,0,0,0,0,0,0,0,0,0,3.0005,3.0007,0,3.0174,3.0175,3.0177,3.0178,3.0176,3.0174,3.0172,3.0346,3.0353,3.0359,0,0,0,0,0,0,0,0,0,0,0,0,0,2.9686,2.9692,3.0005,3.0007,3.0009,3.0173,3.0176,3.0178,3.0179,3.0176,3.0173,3.0171,3.0344,3.0352,3.036,0,0,0,0,0,0,0,0,0,0,0,0,0,2.9837,2.9694,3.0005,3.0029,3.0033,3.0173,3.0176,3.0178,3.0179,3.0176,3.0173,3.017,3.0341,3.0351,3.0361,3.0488,0,0,3.0391,3.0396,0,0,0,0,0,0,0,0,2.9828,2.9849,3.0024,3.0028,3.0032,3.0151,3.0127,3.0282,3.018,3.0124,3.0172,3.0168,3.0284,3.0299,3.0337,3.0496,3.0503,3.0392,3.0398,3.0403,3.0405,0,0,0,0,0,0,0,2.9818,2.9841,3.0072,3.0026,3.0032,3.0033,3.0051,3.0157,3.022,3.0128,3.0129,3.0149,3.0286,3.0328,3.0342,3.0506,3.0392,3.0401,3.0407,3.0411,3.0777,3.0781,0,0,0,0,0,0,2.9802,2.9833,3.0066,3.0077,2.992,3.0041,3.0061,3.0117,3.0219,3.0231,3.0151,3.0148,3.0312,3.033,3.0348,3.0502,3.0403,3.0412,3.0418,3.0773,3.0778,3.0782,0,0,0,0,0,0,2.9795,2.9823,3.006,2.9955,2.9985,3.005,3.0113,3.0122,3.0163,3.0236,3.0248,3.0182,3.031,3.0334,3.0453,3.0508,3.0416,3.0426,3.0769,3.0775,3.078,3.0813,0,0,0,0,0,0,2.9786,2.9821,2.9869,2.9956,2.9991,3.0161,3.0116,3.0127,3.018,3.0178,3.0268,3.028,3.031,3.0438,3.0463,3.052,3.0433,3.0764,3.0772,3.0778,3.0807,3.0819,3.0829,0,0,0,0,0,2.9775,2.9872,2.9871,2.9899,3.0052,3.0164,3.0184,3.0216,3.0185,3.0234,3.0281,3.0277,3.0499,3.045,3.0478,3.054,3.0761,3.0769,3.0778,3.0802,3.0817,3.0829,0,0,0,0,0,0,2.9789,2.9883,2.9884,3.0012,3.008,3.0164,3.0227,3.023,3.0309,3.0303,3.0339,3.036,3.0479,3.0522,3.0466,3.0668,3.0626,3.0641,3.0635,3.065,3.066,3.0647,3.0442,0,0,0,0,0,2.9807,2.989,2.9968,3.0073,3.0108,3.0162,3.0212,3.023,3.0302,3.0331,3.0387,3.0458,3.0544,3.0599,3.0682,3.0814,3.0834,3.087,3.0881,3.089,3.0901,3.0974,3.0991,3.081,3.0809,3.0809,0,0,2.9845,2.9907,2.9957,3.0078,3.0133,3.0218,3.0186,3.0277,3.0341,3.0346,3.0461,3.0505,3.0587,3.0712,3.0771,3.0752,3.0956,3.0901,3.0907,3.0914,3.0985,3.1002,3.1017,3.0815,3.0814,3.0813,0,0,2.9958,3.0013,3.0107,3.0163,3.0246,3.0282,3.0304,3.0389,3.0418,3.0534,3.054,3.0617,3.0763,3.0821,3.087,3.1006,3.1006,3.1033,3.1089,3.116,3.1174,3.1187,3.1235,3.1252,3.1044,3.1044,3.1044,0,2.9994,3.0122,3.0154,3.0246,3.0299,3.0308,3.0403,3.0456,3.0563,3.06,3.0577,3.0761,3.0817,3.0957,3.099,3.1029,3.1056,3.1021,3.1169,3.1183,3.1195,3.1241,3.1259,3.1047,3.1047,3.1046,3.1046,0,3.0163,3.0252,3.0318,3.042,3.0481,3.0574,3.0621,3.0679,3.0693,3.0731,3.085,3.0917,3.1014,3.1049,3.1063,3.1191,3.1176,3.1161,3.112,3.1214,3.1258,3.1276,3.1051,3.105,3.1049,3.1048,0,0,3.0287,3.0407,3.043,3.0477,3.0571,3.0641,3.0735,3.0829,3.0878,3.0952,3.1032,3.1156,3.1143,3.1198,3.122,3.1282,3.1385,3.126,3.1262,3.128,3.153,3.1539,3.1559,3.1386,3.139,3.1393,3.1522,0,3.0409,3.0575,3.0607,3.0752,3.0834,3.0844,3.0927,3.0993,3.1032,3.1109,3.1152,3.1239,3.1216,3.1249,3.1311,3.1359,3.1436,3.1351,3.1461,3.1464,3.1438,3.1582,3.1592,3.1711,3.154,3.1543,3.1545,0,3.0572,3.0649,3.0802,3.0885,3.0921,3.0994,3.1083,3.1156,3.1233,3.1257,3.1319,3.1334,3.1433,3.1389,3.1526,3.1467,3.1515,3.1545,3.1551,3.1561,3.1509,3.1595,3.175,3.1767,3.1572,3.157,3.1568,0,3.0645,3.0789,3.0898,3.0938,3.1038,3.109,3.1134,3.1207,3.1262,3.1341,3.1377,3.1466,3.1515,3.1584,3.1623,3.1587,3.1757,3.1716,3.178,3.1779,3.1813,3.181,3.1977,3.1847,3.1846,3.1846,3.1846,0,3.0777,3.0869,3.0933,3.1,3.1105,3.1142,3.1245,3.1289,3.1354,3.1431,3.1446,3.1518,3.1566,3.1645,3.1676,3.1785,3.1807,3.1829,3.1836,3.1827,3.1824,3.1857,3.1849,3.1851,3.185,3.1849,3.1848,0,3.0875,3.0922,3.1042,3.1127,3.1151,3.1224,3.1298,3.1364,3.1404,3.1501,3.1526,3.1588,3.1682,3.1728,3.1845,3.1866,3.1989,3.1991,3.1962,3.1965,3.2026,3.2019,3.2218,3.2246,3.2098,3.21,3.2101,0,3.0955,3.1026,3.112,3.1172,3.1217,3.1301,3.1357,3.1398,3.1456,3.1549,3.1604,3.1699,3.1776,3.1926,3.1982,3.2072,3.2076,3.214,3.2089,3.2078,3.2075,3.207,3.2077,3.2148,3.2149,3.215,3.2151,0,3.1091,3.111,3.119,3.1279,3.1345,3.1417,3.1487,3.1529,3.1581,3.1646,3.1742,3.1802,3.1921,3.2015,3.2109,3.2155,3.2162,3.2167,3.2186,3.2177,3.2157,3.2167,3.1985,3.2162,3.2161,3.216,3.2159,3.2159,3.1182,3.1246,3.1321,3.141,3.1468,3.1533,3.16,3.1648,3.1729,3.1828,3.1848,3.195,3.2026,3.2153,3.2203,3.2283,3.2269,3.2297,3.2304,3.231,3.2313,3.2145,3.2301,3.2301,3.23,3.23,3.23,0,3.1317,3.1367,3.1448,3.1546,3.1616,3.1617,3.1696,3.1754,3.1843,3.1914,3.199,3.21,3.2192,3.2256,3.2349,3.2401,3.2407,3.2424,3.242,3.2431,3.2321,3.2294,3.2418,3.2418,3.2418,3.2418,3.2418,3.2418,3.1395,3.1504,3.1533,3.167,3.172,3.1819,3.1864,3.1925,3.1981,3.2104,3.218,3.2221,3.2289,3.2388,3.2472,3.2488,3.2521,3.2539,3.2555,3.2451,3.2438,3.2426,3.2401,3.2546,3.2546,3.2658,3.2659,3.266]},{"header":{"parameterUnit":"m.s-1","parameterCategory":1,"la1":30.2991,"la2":30.254,"lo1":-89.0895,"lo2":-89.0444,"dy":0.0017,"dx":0.0017,"nx":28,"ny":28,"refTime":"2025-04-10T09:00:00:Z","depth":0,"parameterNumber":3,"parameterNumberName":"V-component_of_WINDS"},"data":[0,0,0,0,0,0,0,0,0,0,0,0,0,0,0,0,0,0,0,0,0,0,0,0,0,0,0,0,0,0,0,0,0,0,0,0,0,0,0,0,0,0,0,0,0,0,0,0,0,0,0,0,0,0,0,0,0,0,3.1671,3.1673,0,3.1847,3.1849,3.1851,3.1861,3.1859,3.1857,3.1855,3.2036,3.2042,3.2049,0,0,0,0,0,0,0,0,0,0,0,0,0,3.1342,3.1348,3.1671,3.1673,3.1675,3.1847,3.1849,3.1852,3.1862,3.1859,3.1857,3.1855,3.2033,3.2041,3.2049,0,0,0,0,0,0,0,0,0,0,0,0,0,3.1498,3.135,3.167,3.1701,3.1705,3.1846,3.1849,3.1852,3.1862,3.1859,3.1856,3.1853,3.2031,3.2041,3.205,3.2173,0,0,3.2081,3.2085,0,0,0,0,0,0,0,0,3.149,3.151,3.1694,3.1699,3.1704,3.1829,3.18,3.196,3.1863,3.1803,3.1855,3.1852,3.1969,3.1984,3.2024,3.2181,3.2189,3.2082,3.2088,3.2092,3.2095,0,0,0,0,0,0,0,3.1479,3.1503,3.1741,3.1697,3.1703,3.1706,3.1724,3.183,3.1901,3.1808,3.1809,3.183,3.1972,3.2014,3.2028,3.2192,3.2082,3.2091,3.2097,3.2101,3.2459,3.2462,0,0,0,0,0,0,3.1462,3.1494,3.1735,3.1746,3.1587,3.1714,3.1735,3.1792,3.19,3.1913,3.1832,3.1829,3.1999,3.2017,3.2035,3.2186,3.2092,3.2102,3.2107,3.2456,3.246,3.2464,0,0,0,0,0,0,3.1455,3.1483,3.1728,3.162,3.1652,3.1723,3.1787,3.1797,3.184,3.1918,3.1931,3.1863,3.1997,3.2021,3.2139,3.2192,3.2106,3.2115,3.2451,3.2457,3.2462,3.2488,0,0,0,0,0,0,3.1446,3.1481,3.1528,3.1621,3.1657,3.1829,3.179,3.1803,3.1857,3.1856,3.195,3.1963,3.1996,3.2124,3.2149,3.2204,3.2123,3.2447,3.2454,3.246,3.2483,3.2494,3.2503,0,0,0,0,0,3.1434,3.1528,3.1531,3.156,3.1718,3.1832,3.1853,3.1889,3.1862,3.191,3.196,3.196,3.2182,3.2136,3.2164,3.2223,3.2444,3.2452,3.246,3.2479,3.2492,3.2503,0,0,0,0,0,0,3.144,3.1541,3.1545,3.1672,3.1744,3.1834,3.1896,3.1902,3.1983,3.1978,3.2019,3.2041,3.2158,3.2202,3.2149,3.2348,3.231,3.2324,3.2315,3.2328,3.2338,3.2325,3.2131,0,0,0,0,0,3.1456,3.154,3.1624,3.1729,3.1764,3.1824,3.1875,3.1897,3.1972,3.2002,3.2061,3.2134,3.2221,3.2277,3.236,3.2489,3.251,3.2544,3.2554,3.2562,3.2574,3.2646,3.2662,3.249,3.2489,3.2489,0,0,3.149,3.1556,3.1606,3.1732,3.1789,3.1876,3.1849,3.1941,3.2006,3.2016,3.2132,3.2178,3.2262,3.2386,3.2444,3.2427,3.2626,3.2572,3.2578,3.2586,3.2656,3.2672,3.2687,3.2495,3.2494,3.2493,0,0,3.1597,3.1655,3.1749,3.1807,3.1895,3.1934,3.1956,3.2046,3.2077,3.2193,3.2203,3.228,3.2428,3.2488,3.2538,3.2667,3.267,3.2693,3.2746,3.2816,3.2829,3.2842,3.2889,3.2905,3.2704,3.2705,3.2705,0,3.1628,3.1759,3.1796,3.1889,3.1944,3.1957,3.2053,3.2107,3.2218,3.2256,3.2235,3.2421,3.2479,3.2617,3.2649,3.2689,3.2716,3.2683,3.2825,3.2837,3.2849,3.2894,3.2912,3.2707,3.2706,3.2706,3.2706,0,3.1793,3.1884,3.1949,3.2056,3.2118,3.2212,3.2263,3.2322,3.2338,3.2379,3.2498,3.2567,3.2666,3.27,3.2717,3.2842,3.2829,3.2816,3.2779,3.2867,3.2911,3.2928,3.271,3.2709,3.2708,3.2708,0,0,3.1909,3.2035,3.2059,3.2108,3.2206,3.2277,3.2371,3.2467,3.2517,3.2593,3.2673,3.2798,3.2787,3.2843,3.2867,3.2928,3.3027,3.2908,3.2911,3.2928,3.3169,3.3179,3.3198,3.3029,3.3033,3.3036,3.3162,0,3.2027,3.2195,3.2231,3.2377,3.2461,3.2475,3.2557,3.2626,3.2667,3.2745,3.279,3.2878,3.2856,3.2891,3.2952,3.3002,3.3076,3.2993,3.3105,3.3108,3.3084,3.3221,3.3231,3.3347,3.318,3.3182,3.3184,0,3.2187,3.2267,3.2421,3.2508,3.2545,3.2618,3.271,3.2784,3.2862,3.2888,3.2951,3.2969,3.3067,3.3025,3.3161,3.3104,3.3152,3.3183,3.3189,3.3201,3.3152,3.3237,3.3385,3.3403,3.3211,3.3209,3.3207,0,3.2256,3.2403,3.2514,3.2555,3.266,3.2711,3.2757,3.2833,3.2889,3.2969,3.3005,3.3095,3.3145,3.3214,3.3255,3.3221,3.3389,3.335,3.3413,3.3412,3.3449,3.3446,3.3607,3.3478,3.3478,3.3478,3.3477,0,3.2385,3.2478,3.2546,3.2615,3.272,3.2761,3.2864,3.291,3.2977,3.3055,3.3072,3.3145,3.3195,3.3274,3.3307,3.3415,3.3437,3.3461,3.3469,3.346,3.3457,3.3492,3.3485,3.3482,3.3481,3.348,3.348,0,3.248,3.2529,3.2652,3.2741,3.2766,3.284,3.2916,3.2983,3.3024,3.3122,3.3148,3.3212,3.3307,3.3355,3.3472,3.3494,3.3617,3.3619,3.359,3.3594,3.3655,3.3649,3.3845,3.3873,3.3725,3.3726,3.3727,0,3.2559,3.2631,3.2729,3.2782,3.2829,3.2915,3.2972,3.3015,3.3074,3.317,3.3225,3.3321,3.3399,3.3549,3.3607,3.3697,3.3702,3.3765,3.3716,3.3705,3.3704,3.37,3.3707,3.3773,3.3775,3.3776,3.3777,0,3.2694,3.2715,3.2797,3.2888,3.2956,3.3029,3.3102,3.3144,3.3199,3.3264,3.3361,3.3423,3.3543,3.3638,3.3732,3.3779,3.3788,3.3792,3.3812,3.3804,3.3784,3.3796,3.3615,3.3787,3.3786,3.3786,3.3785,3.3785,3.2784,3.2849,3.2928,3.3019,3.3078,3.3146,3.3214,3.3263,3.3345,3.3447,3.3467,3.357,3.3647,3.3775,3.3825,3.3907,3.3893,3.3921,3.3929,3.3935,3.3939,3.3771,3.3924,3.3924,3.3923,3.3923,3.3923,0,3.292,3.2972,3.3055,3.3156,3.3228,3.323,3.331,3.337,3.3461,3.3532,3.361,3.3721,3.3813,3.3878,3.3972,3.4024,3.4031,3.4048,3.4045,3.4055,3.3945,3.3919,3.4041,3.4041,3.4041,3.4041,3.4041,3.4041,3.2999,3.311,3.3141,3.3282,3.3333,3.3434,3.348,3.3543,3.36,3.3724,3.3801,3.3843,3.3912,3.4011,3.4095,3.4112,3.4146,3.4163,3.418,3.4076,3.4063,3.4051,3.4027,3.417,3.417,3.4284,3.4285,3.4286]}]]